Leesburg, VA

4:15 AM EDT on September 26, 2016 (GMT -0400)
Leesburg Executive

Weather History for KJYO - October, 2013

Change the Weather History Date:

Friday, October 11, 2013

  Actual Average (KIAD) Record (KIAD)
Temperature  
Mean Temperature 58 °F 58 °F  
Max Temperature 60 °F 70 °F 86 °F (2010)
Min Temperature 55 °F 45 °F 28 °F (1972)
Degree Days  
Heating Degree Days 8 8  
Month to date heating degree days 74  
Since 1 July heating degree days 132  
Cooling Degree Days 0 1  
Month to date cooling degree days 13  
Year to date cooling degree days 1170  
Growing Degree Days 8 (Base 50)    
Moisture  
Dew Point 59 °F    
Average Humidity 100    
Maximum Humidity 100    
Minimum Humidity 100    
Precipitation  
Precipitation 1.97 in 0.11 in 3.38 in (2013)
Month to date precipitation 1.17  
Year to date precipitation 33.09  
Snow  
Snow 0.00 in 0.00 in - ()
Month to date snowfall 0.0  
Since 1 July snowfall 0.0  
Snow Depth -    
Sea Level Pressure  
Sea Level Pressure 30.00 in    
Wind  
Wind Speed 9 mph (North)    
Max Wind Speed 14 mph    
Max Gust Speed 18 mph    
Visibility 5 miles    
Events Rain    
T = Trace of Precipitation, MM = Missing Value Source: NWS Daily Summary

Daily Weather History Graph

Daily Weather History Graph

Search for Another Location

Airport or City:

Trip Planner

Search our weather history database for the weather conditions in past years. The results will help you decide how hot, cold, wet, or windy it might be!

Date:

Astronomy

Oct. 11, 2013 Rise Set
Actual Time 7:16 AM EDT 6:37 PM EDT
Civil Twilight 6:49 AM EDT 7:03 PM EDT
Nautical Twilight 6:18 AM EDT 7:34 PM EDT
Astronomical Twilight 5:47 AM EDT 8:05 PM EDT
Moon 1:55 PM EDT (10/11) No Moon Set
Length of Visible Light 12h 14m
Length of Day
11h 21m
Waxing Crescent, 47% of the Moon is Illuminated
Oct 11
Waxing Crescent
Oct 11
First Quarter
Oct 18
Full
Oct 26
Last Quarter
Nov 3
New

Hourly Weather History & Observations

Time (EDT) Temp. Dew Point Humidity Pressure Visibility Wind Dir Wind Speed Gust Speed Precip Events Conditions
12:15 AM 55.4 °F 55.4 °F 100% 30.02 in 4.0 mi NNE 8.1 mph - N/A   Overcast
12:35 AM 57.2 °F 57.2 °F 100% 30.01 in 4.0 mi North 11.5 mph 16.1 mph N/A   Overcast
12:55 AM 57.2 °F 57.2 °F 100% 30.01 in 5.0 mi NNE 10.4 mph 16.1 mph 0.01 in   Drizzle
1:15 AM 57.2 °F 57.2 °F 100% 30.00 in 5.0 mi NNE 10.4 mph 16.1 mph 0.01 in   Drizzle
1:35 AM 57.2 °F 57.2 °F 100% 30.00 in 7.0 mi North 12.7 mph 18.4 mph 0.01 in   Overcast
1:55 AM 59.0 °F 59.0 °F 100% 30.00 in 10.0 mi NNE 8.1 mph - 0.01 in   Overcast
2:15 AM 59.0 °F 59.0 °F 100% 30.00 in 10.0 mi NNE 11.5 mph - N/A   Overcast
2:55 AM 59.0 °F 59.0 °F 100% 29.99 in 10.0 mi North 13.8 mph 18.4 mph N/A   Overcast
3:15 AM 59.0 °F 59.0 °F 100% 29.99 in 10.0 mi North 10.4 mph - N/A   Overcast
3:35 AM 59.0 °F 59.0 °F 100% 29.98 in 10.0 mi North 6.9 mph - N/A   Overcast
3:55 AM 57.2 °F 57.2 °F 100% 29.98 in 10.0 mi North 6.9 mph - N/A   Overcast
4:15 AM 57.2 °F 57.2 °F 100% 29.98 in 4.0 mi North 8.1 mph - N/A   Overcast
4:35 AM 55.4 °F 55.4 °F 100% 29.98 in 4.0 mi North 6.9 mph - N/A Rain Light Rain
4:55 AM 55.4 °F 55.4 °F 100% 29.98 in 4.0 mi North 10.4 mph - N/A   Drizzle
5:15 AM 55.4 °F 55.4 °F 100% 29.98 in 7.0 mi North 9.2 mph - N/A   Light Drizzle
5:35 AM 55.4 °F 55.4 °F 100% 29.98 in 7.0 mi North 10.4 mph - 0.01 in   Overcast
5:55 AM 55.4 °F 55.4 °F 100% 29.98 in 2.5 mi North 11.5 mph - 0.01 in Rain Rain
6:15 AM 55.4 °F 55.4 °F 100% 29.99 in 3.0 mi North 11.5 mph 16.1 mph N/A Rain Light Rain
6:35 AM 55.4 °F 55.4 °F 100% 29.99 in 4.0 mi North 8.1 mph - N/A   Overcast
6:55 AM 55.4 °F 55.4 °F 100% 29.99 in 3.0 mi NNW 8.1 mph - N/A Rain Light Rain
7:15 AM 55.4 °F 55.4 °F 100% 29.99 in 4.0 mi North 8.1 mph - N/A Rain Rain
7:35 AM 55.4 °F 55.4 °F 100% 29.99 in 4.0 mi North 10.4 mph - 0.03 in Rain Light Rain
7:55 AM 55.4 °F 55.4 °F 100% 29.99 in 5.0 mi North 11.5 mph - 0.04 in   Drizzle
8:15 AM 55.4 °F 55.4 °F 100% 29.99 in 5.0 mi North 11.5 mph 17.3 mph 0.01 in   Drizzle
8:35 AM 55.4 °F 55.4 °F 100% 30.00 in 3.0 mi North 13.8 mph - 0.10 in Rain Heavy Rain
8:55 AM 55.4 °F 55.4 °F 100% 30.00 in 7.0 mi North 10.4 mph - 0.17 in Rain Rain
9:15 AM 57.2 °F 57.2 °F 100% 30.00 in 5.0 mi North 11.5 mph - 0.05 in Rain Heavy Rain
9:35 AM 57.2 °F 57.2 °F 100% 30.00 in 5.0 mi North 9.2 mph - 0.13 in Rain Rain
9:55 AM 57.2 °F 57.2 °F 100% 30.00 in 5.0 mi North 10.4 mph - 0.19 in Rain Heavy Rain
10:15 AM 57.2 °F 57.2 °F 100% 30.01 in 7.0 mi North 10.4 mph - 0.04 in Rain Rain
10:35 AM 59.0 °F 59.0 °F 100% 30.01 in 5.0 mi North 8.1 mph - 0.10 in Rain Heavy Rain
10:55 AM 59.0 °F 59.0 °F 100% 30.01 in 10.0 mi North 9.2 mph - 0.11 in Rain Light Rain
11:15 AM 59.0 °F 59.0 °F 100% 30.01 in 5.0 mi NNW 10.4 mph - 0.05 in Rain Light Rain
11:35 AM 59.0 °F 59.0 °F 100% 30.01 in 7.0 mi North 9.2 mph - 0.05 in Rain Light Rain
11:55 AM 59.0 °F 59.0 °F 100% 30.01 in 4.0 mi North 11.5 mph - 0.05 in   Overcast
12:15 PM 59.0 °F 59.0 °F 100% 30.01 in 3.0 mi North 10.4 mph - N/A Rain Light Rain
12:35 PM 59.0 °F 59.0 °F 100% 30.01 in 5.0 mi North 8.1 mph - 0.03 in Rain Rain
12:55 PM 59.0 °F 59.0 °F 100% 30.01 in 3.0 mi NNW 10.4 mph - 0.10 in Rain Heavy Rain
1:15 PM 59.0 °F 59.0 °F 100% 30.00 in 10.0 mi NNW 10.4 mph - N/A Rain Light Rain
1:35 PM 59.0 °F 59.0 °F 100% 29.99 in 4.0 mi North 9.2 mph - 0.02 in Rain Rain
1:55 PM 59.0 °F 59.0 °F 100% 29.99 in 4.0 mi NNW 6.9 mph - 0.07 in Rain Rain
2:15 PM 59.0 °F 59.0 °F 100% 29.98 in 5.0 mi North 6.9 mph - N/A Rain Rain
2:35 PM 59.0 °F 59.0 °F 100% 29.98 in 5.0 mi North 9.2 mph - 0.05 in Rain Rain
2:55 PM 59.0 °F 59.0 °F 100% 29.98 in 3.0 mi North 8.1 mph - 0.09 in Rain Heavy Rain
3:15 PM 59.0 °F 59.0 °F 100% 29.98 in 5.0 mi North 8.1 mph - 0.05 in Rain Heavy Rain
3:35 PM 59.0 °F 59.0 °F 100% 29.98 in 5.0 mi North 8.1 mph - 0.14 in Rain Heavy Rain
3:55 PM 59.0 °F 59.0 °F 100% 29.98 in 5.0 mi North 6.9 mph - 0.21 in Rain Heavy Rain
4:15 PM 59.0 °F 59.0 °F 100% 29.97 in 5.0 mi North 8.1 mph - 0.06 in Rain Rain
4:35 PM 59.0 °F 59.0 °F 100% 29.98 in 7.0 mi North 9.2 mph - 0.12 in Rain Heavy Rain
4:55 PM 60.8 °F 60.8 °F 100% 29.98 in 7.0 mi North 6.9 mph - 0.18 in Rain Heavy Rain
5:15 PM 60.8 °F 60.8 °F 100% 29.98 in 7.0 mi North 6.9 mph - 0.03 in Rain Rain
5:35 PM 60.8 °F 60.8 °F 100% 29.98 in 5.0 mi North 5.8 mph - 0.10 in Rain Heavy Rain
5:55 PM 60.8 °F 60.8 °F 100% 29.99 in 5.0 mi North 5.8 mph - 0.13 in Rain Rain
6:15 PM 60.8 °F 60.8 °F 100% 29.99 in 1.8 mi North 9.2 mph 16.1 mph N/A Rain Light Rain
6:35 PM 60.8 °F 60.8 °F 100% 30.00 in 3.0 mi NNE 8.1 mph - N/A   Overcast
6:55 PM 60.8 °F 60.8 °F 100% 30.00 in 5.0 mi NNE 9.2 mph - N/A   Overcast
7:15 PM 60.8 °F 60.8 °F 100% 30.00 in 4.0 mi North 9.2 mph - N/A   Overcast
7:35 PM 60.8 °F 60.8 °F 100% 30.01 in 5.0 mi North 8.1 mph - N/A Rain Light Rain
7:55 PM 60.8 °F 60.8 °F 100% 30.01 in 5.0 mi NNE 8.1 mph - N/A   Overcast
8:15 PM 60.8 °F 60.8 °F 100% 30.01 in 4.0 mi North 8.1 mph - 0.01 in Rain Light Rain
8:35 PM 60.8 °F 60.8 °F 100% 30.01 in 7.0 mi NNE 5.8 mph - 0.01 in   Overcast
8:55 PM 60.8 °F 60.8 °F 100% 30.02 in 5.0 mi NNE 5.8 mph - 0.01 in Rain Light Rain
9:15 PM 60.8 °F 60.8 °F 100% 30.02 in 5.0 mi North 6.9 mph - 0.01 in   Drizzle
9:35 PM 60.8 °F 60.8 °F 100% 30.03 in 4.0 mi North 6.9 mph - 0.04 in Rain Rain
9:55 PM 60.8 °F 60.8 °F 100% 30.03 in 3.0 mi NNE 11.5 mph - 0.06 in Rain Light Rain
10:15 PM 60.8 °F 60.8 °F 100% 30.03 in 3.0 mi North 8.1 mph - N/A Rain Rain
10:35 PM 60.8 °F 60.8 °F 100% 30.03 in 3.0 mi North 9.2 mph - 0.12 in Rain Heavy Rain
10:55 PM 60.8 °F 60.8 °F 100% 30.03 in 4.0 mi NNE 8.1 mph - 0.33 in Rain Heavy Rain
11:15 PM 60.8 °F 60.8 °F 100% 30.02 in 4.0 mi NNE 9.2 mph - 0.09 in Rain Rain
11:35 PM 60.8 °F 60.8 °F 100% 30.02 in 5.0 mi North 9.2 mph 16.1 mph 0.17 in Rain Rain
11:55 PM 60.8 °F 60.8 °F 100% 30.02 in 7.0 mi NNE 8.1 mph - 0.20 in Rain Rain